WGS F4 (USA 233)

Last updated on July 19, 2019, 4:11 a.m. UTC

1 38070U 12003A   19199.12112654 -.00000225  00000-0  00000+0 0  9994
2 38070   0.0165  35.5734 0000397  97.0884 294.9738  1.00272141 27395
UTC
Height (km)
Latitude
Longitude
Inclination
Orbital Period
UTC large
Height (km)
Speed (km/s)
/
Latitude / Longitude
Inclination (degrees)
Orbital Period (minutes)
Azimuth
Elevation
Range (km)
Doppler Factor
iOS Compass Heading
iOS Angle

Next 30 passes for location: Hong Kong

Rise time Rise Azimuth (degrees) Set time Set Azimuth (degrees) Duration Max altitude (degrees)

No matching passes for this satellites